• în România
  • Lista ţărilor
  • Pe 7 zile
  • Temperatura apei
  • Hartă satelitară
  • Meteo pe hartă
  • Widget-uri
  • user-avatar
    Intrare

    Meteo pe oră la Elbasan

    Astăzi, 21 Mai, Luni

    Timp Temperatura Precipitaţii Vânt Presiune Umiditate
    00:00 +17°C° 0 mm 2 m/s 734 mmHg 80%
    01:00 +17°C° 0 mm 2 m/s 734 mmHg 79%
    02:00 +17°C° 0 mm 2 m/s 734 mmHg 80%
    03:00 +17°C° 0 mm 2 m/s 734 mmHg 81%
    04:00 +16°C° 0 mm 2 m/s 733 mmHg 82%
    05:00 +18°C° 0 mm 2 m/s 734 mmHg 79%
    06:00 +19°C° 0 mm 2 m/s 734 mmHg 76%
    07:00 +21°C° 0 mm 2 m/s 734 mmHg 73%
    08:00 +23°C° 0,1 mm 2 m/s 734 mmHg 68%
    09:00 +24°C° 0,1 mm 2 m/s 734 mmHg 62%
    10:00 +26°C° 0,1 mm 2 m/s 734 mmHg 56%
    11:00 +26°C° 0,2 mm 2 m/s 734 mmHg 55%
    12:00 +27°C° 0,2 mm 2 m/s 734 mmHg 54%
    13:00 +27°C° 0,2 mm 2 m/s 734 mmHg 53%
    14:00 +27°C° 0,9 mm 2 m/s 733 mmHg 56%
    15:00 +26°C° 0,9 mm 2 m/s 733 mmHg 58%
    16:00 +26°C° 0,9 mm 2 m/s 733 mmHg 61%
    17:00 +24°C° 0,9 mm 2 m/s 733 mmHg 67%
    18:00 +23°C° 0,9 mm 1 m/s 733 mmHg 73%
    19:00 +21°C° 0,9 mm 1 m/s 733 mmHg 79%
    20:00 +20°C° 0,3 mm 1 m/s 733 mmHg 79%
    21:00 +20°C° 0,3 mm 1 m/s 734 mmHg 80%
    22:00 +19°C° 0,3 mm 1 m/s 734 mmHg 80%
    23:00 +19°C° 0 mm 1 m/s 734 mmHg 80%

    Mâine, 22 Mai, Marţi

    Timp Temperatura Precipitaţii Vânt Presiune Umiditate
    00:00 +19°C° 0 mm 1 m/s 734 mmHg 80%
    01:00 +19°C° 0 mm 1 m/s 734 mmHg 80%
    02:00 +17°C° 0 mm 2 m/s 734 mmHg 80%
    03:00 +17°C° 0 mm 2 m/s 734 mmHg 81%
    04:00 +17°C° 0 mm 2 m/s 734 mmHg 81%
    05:00 +20°C° 0 mm 1 m/s 735 mmHg 77%
    06:00 +21°C° 0 mm 1 m/s 735 mmHg 73%
    07:00 +23°C° 0 mm 1 m/s 735 mmHg 69%
    08:00 +24°C° 0,3 mm 1 m/s 735 mmHg 63%
    09:00 +26°C° 0,3 mm 1 m/s 736 mmHg 58%
    10:00 +27°C° 0,3 mm 1 m/s 736 mmHg 52%
    11:00 +27°C° 0,6 mm 2 m/s 736 mmHg 52%
    12:00 +28°C° 0,6 mm 2 m/s 736 mmHg 52%
    13:00 +28°C° 0,6 mm 3 m/s 736 mmHg 52%
    14:00 +27°C° 0,9 mm 2 m/s 736 mmHg 55%
    15:00 +27°C° 0,9 mm 2 m/s 736 mmHg 58%
    16:00 +26°C° 0,9 mm 2 m/s 736 mmHg 61%
    17:00 +25°C° 0,4 mm 1 m/s 736 mmHg 66%
    18:00 +23°C° 0,4 mm 1 m/s 736 mmHg 71%
    19:00 +19°C° 0,4 mm 0 m/s 736 mmHg 76%
    20:00 +21°C° 0 mm 1 m/s 736 mmHg 77%
    21:00 +20°C° 0 mm 1 m/s 737 mmHg 77%
    22:00 +20°C° 0 mm 1 m/s 737 mmHg 78%
    23:00 +19°C° 0 mm 1 m/s 737 mmHg 77%

    Poimâine, 23 Mai, Miercuri

    Timp Temperatura Precipitaţii Vânt Presiune Umiditate
    00:00 +19°C° 0 mm 1 m/s 736 mmHg 77%
    01:00 +19°C° 0 mm 1 m/s 736 mmHg 77%
    02:00 +19°C° 0 mm 1 m/s 736 mmHg 77%
    03:00 +18°C° 0 mm 1 m/s 736 mmHg 76%
    04:00 +18°C° 0 mm 1 m/s 736 mmHg 75%
    05:00 +20°C° 0 mm 1 m/s 736 mmHg 71%
    06:00 +22°C° 0 mm 1 m/s 737 mmHg 67%
    07:00 +23°C° 0 mm 1 m/s 737 mmHg 63%
    08:00 +24°C° 0,2 mm 1 m/s 737 mmHg 62%
    09:00 +25°C° 0,2 mm 2 m/s 737 mmHg 62%
    10:00 +25°C° 0,2 mm 2 m/s 737 mmHg 61%
    11:00 +25°C° 0,6 mm 2 m/s 737 mmHg 61%
    12:00 +26°C° 0,6 mm 1 m/s 736 mmHg 61%
    13:00 +26°C° 0,6 mm 1 m/s 736 mmHg 61%
    14:00 +25°C° 0,5 mm 1 m/s 736 mmHg 62%
    15:00 +25°C° 0,5 mm 2 m/s 735 mmHg 64%
    16:00 +25°C° 0,5 mm 2 m/s 735 mmHg 66%
    17:00 +23°C° 0,2 mm 2 m/s 735 mmHg 70%
    18:00 +22°C° 0,2 mm 1 m/s 735 mmHg 75%
    19:00 +21°C° 0,2 mm 1 m/s 735 mmHg 79%
    20:00 +20°C° 0 mm 1 m/s 735 mmHg 79%
    21:00 +20°C° 0 mm 1 m/s 735 mmHg 79%
    22:00 +19°C° 0 mm 1 m/s 735 mmHg 79%
    23:00 +19°C° 0 mm 1 m/s 735 mmHg 79%

    24 Mai, Joi

    Timp Temperatura Precipitaţii Vânt Presiune Umiditate
    00:00 +18°C° 0 mm 1 m/s 735 mmHg 79%
    01:00 +18°C° 0 mm 1 m/s 734 mmHg 80%
    02:00 +18°C° 0 mm 1 m/s 734 mmHg 79%
    03:00 +18°C° 0 mm 1 m/s 734 mmHg 79%
    04:00 +16°C° 0 mm 1 m/s 734 mmHg 79%
    05:00 +19°C° 0 mm 1 m/s 734 mmHg 74%
    06:00 +21°C° 0 mm 1 m/s 734 mmHg 70%
    07:00 +22°C° 0 mm 1 m/s 734 mmHg 65%
    08:00 +24°C° 0,2 mm 1 m/s 734 mmHg 62%
    09:00 +25°C° 0,2 mm 2 m/s 734 mmHg 59%
    10:00 +26°C° 0,2 mm 2 m/s 734 mmHg 55%
    11:00 +26°C° 0,4 mm 2 m/s 734 mmHg 55%
    12:00 +26°C° 0,4 mm 3 m/s 734 mmHg 55%
    13:00 +27°C° 0,4 mm 3 m/s 733 mmHg 56%
    14:00 +26°C° 0,6 mm 3 m/s 733 mmHg 59%
    15:00 +25°C° 0,6 mm 3 m/s 733 mmHg 62%
    16:00 +25°C° 0,6 mm 3 m/s 733 mmHg 66%
    17:00 +22°C° 0,3 mm 3 m/s 733 mmHg 72%
    18:00 +21°C° 0,3 mm 2 m/s 733 mmHg 78%
    19:00 +20°C° 0,3 mm 1 m/s 733 mmHg 84%
    20:00 +20°C° 0,1 mm 1 m/s 733 mmHg 85%
    21:00 +19°C° 0,1 mm 1 m/s 733 mmHg 86%
    22:00 +19°C° 0,1 mm 1 m/s 733 mmHg 86%
    23:00 +18°C° 0 mm 1 m/s 733 mmHg 86%

    25 Mai, Vineri

    Timp Temperatura Precipitaţii Vânt Presiune Umiditate
    00:00 +18°C° 0 mm 1 m/s 733 mmHg 85%
    01:00 +18°C° 0 mm 1 m/s 733 mmHg 84%
    02:00 +18°C° 0 mm 1 m/s 733 mmHg 83%
    03:00 +18°C° 0 mm 1 m/s 733 mmHg 83%
    04:00 +16°C° 0 mm 1 m/s 733 mmHg 83%
    05:00 +19°C° 0 mm 1 m/s 733 mmHg 78%
    06:00 +21°C° 0 mm 1 m/s 733 mmHg 74%
    07:00 +23°C° 0 mm 1 m/s 734 mmHg 69%
    08:00 +24°C° 0 mm 1 m/s 734 mmHg 64%
    09:00 +26°C° 0 mm 1 m/s 734 mmHg 60%
    10:00 +27°C° 0 mm 1 m/s 734 mmHg 55%
    11:00 +27°C° 0,1 mm 2 m/s 733 mmHg 54%
    12:00 +28°C° 0,1 mm 2 m/s 733 mmHg 54%
    13:00 +28°C° 0,1 mm 3 m/s 733 mmHg 53%
    14:00 +28°C° 0,1 mm 3 m/s 733 mmHg 55%
    15:00 +27°C° 0,1 mm 3 m/s 733 mmHg 57%
    16:00 +27°C° 0,1 mm 3 m/s 732 mmHg 59%
    17:00 +25°C° 0,1 mm 2 m/s 732 mmHg 67%
    18:00 +23°C° 0,1 mm 2 m/s 733 mmHg 74%
    19:00 +22°C° 0,1 mm 1 m/s 733 mmHg 82%
    20:00 +21°C° 0 mm 1 m/s 733 mmHg 82%
    21:00 +20°C° 0 mm 1 m/s 733 mmHg 83%
    22:00 +20°C° 0 mm 1 m/s 733 mmHg 84%
    23:00 +20°C° 0 mm 1 m/s 733 mmHg 83%

    26 Mai, Sâmbătă

    Timp Temperatura Precipitaţii Vânt Presiune Umiditate
    00:00 +19°C° 0 mm 1 m/s 733 mmHg 83%
    01:00 +19°C° 0 mm 1 m/s 733 mmHg 82%
    02:00 +19°C° 0 mm 1 m/s 733 mmHg 82%
    03:00 +19°C° 0 mm 1 m/s 733 mmHg 81%
    04:00 +18°C° 0 mm 1 m/s 733 mmHg 81%
    05:00 +20°C° 0 mm 1 m/s 733 mmHg 76%
    06:00 +21°C° 0 mm 2 m/s 734 mmHg 72%
    07:00 +24°C° 0 mm 2 m/s 734 mmHg 67%
    08:00 +25°C° 0 mm 2 m/s 734 mmHg 61%
    09:00 +27°C° 0 mm 2 m/s 734 mmHg 55%
    10:00 +28°C° 0 mm 3 m/s 735 mmHg 49%
    11:00 +28°C° 0,3 mm 3 m/s 734 mmHg 49%
    12:00 +29°C° 0,3 mm 3 m/s 734 mmHg 49%
    13:00 +29°C° 0,3 mm 3 m/s 734 mmHg 48%
    14:00 +29°C° 0,5 mm 3 m/s 734 mmHg 51%
    15:00 +28°C° 0,5 mm 3 m/s 734 mmHg 53%
    16:00 +28°C° 0,5 mm 3 m/s 734 mmHg 55%
    17:00 +26°C° 0,2 mm 3 m/s 735 mmHg 61%
    18:00 +24°C° 0,2 mm 2 m/s 735 mmHg 68%
    19:00 +23°C° 0,2 mm 2 m/s 735 mmHg 74%
    20:00 +21°C° 0,1 mm 2 m/s 735 mmHg 75%
    21:00 +20°C° 0,1 mm 2 m/s 736 mmHg 76%
    22:00 +20°C° 0,1 mm 2 m/s 736 mmHg 77%
    23:00 +19°C° 0,1 mm 2 m/s 736 mmHg 78%
    Arată mai mult